Location: Gravenhurst
(44.9196°N, 79.3742°W)
Time: 06:16:15
(UTC-05:00)

N. Korean satellite - Pass Details

Date: 25 October 2019
Orbit: 456 x 506 km, 97.2° (Epoch: 20 November)

Event Time Altitude Azimuth Distance (km) Brightness Sun altitude
Rises 18:41:20 0° 181° (S) 2,465 10.3 -5.1°
Reaches altitude 10° 18:43:25 10° 187° (S) 1,601 9.5 -5.5°
Maximum altitude 18:46:43 44° 261° (W) 653 7.9 -6.0°
Drops below altitude 10° 18:50:05 10° 335° (NNW) 1,634 9.4 -6.6°
Sets 18:52:13 0° 342° (NNW) 2,524 10.3 -7.0°
